Jaffrey, NH

5:27 PM EDT on March 27, 2017 (GMT -0400)
Jaffrey Airport-Silver Ranch

Weather History for KAFN - February, 2014

Change the Weather History Date:

Sunday, February 2, 2014

  Actual Average Record
Temperature  
Mean Temperature 38 °F -  
Max Temperature 44 °F 30 °F 45 °F (1998)
Min Temperature 30 °F 12 °F -2 °F (2005)
Degree Days  
Heating Degree Days 27    
Moisture  
Dew Point 31 °F    
Average Humidity 85    
Maximum Humidity 96    
Minimum Humidity 60    
Precipitation  
Precipitation 0.05 in - - ()
Sea Level Pressure  
Sea Level Pressure 29.92 in    
Wind  
Wind Speed 7 mph (SSW)    
Max Wind Speed 14 mph    
Max Gust Speed 22 mph    
Visibility 7 miles    
Events Fog , Rain    
Averages and records for this station are not official NWS values.
T = Trace of Precipitation, MM = Missing Value Source: NWS Daily Summary

Daily Weather History Graph

Daily Weather History Graph

Search for Another Location

Airport or City:

Trip Planner

Search our weather history database for the weather conditions in past years. The results will help you decide how hot, cold, wet, or windy it might be!

Date:

Astronomy

Feb. 02, 2014 Rise Set
Actual Time 7:01 AM EST 5:02 PM EST
Civil Twilight 6:31 AM EST 5:32 PM EST
Nautical Twilight 5:57 AM EST 6:06 PM EST
Astronomical Twilight 5:24 AM EST 6:39 PM EST
Moon 8:20 AM EST (2/2) 8:49 PM EST (2/2)
Length of Visible Light 11h 00m
Length of Day
10h 00m
Waxing Crescent, 11% of the Moon is Illuminated
Feb 2
Waxing Crescent
Feb 6
First Quarter
Feb 14
Full
Feb 22
Last Quarter
Mar 1
New

Hourly Weather History & Observations

Time (EST) Temp. Windchill Dew Point Humidity Pressure Visibility Wind Dir Wind Speed Gust Speed Precip Events Conditions
12:02 AM 35.1 °F 28.6 °F 28.9 °F 78% 29.96 in 10.0 mi SSW 8.1 mph 18.4 mph N/A   Overcast
12:52 AM 36.0 °F 28.0 °F 30.0 °F 79% 29.99 in 10.0 mi SSW 11.5 mph 20.7 mph N/A   Overcast
1:09 AM 36.0 °F 28.0 °F 30.9 °F 82% 29.94 in 10.0 mi SW 11.5 mph 21.9 mph N/A   Overcast
1:52 AM 36.0 °F 27.5 °F 30.9 °F 82% 29.96 in 10.0 mi SSW 12.7 mph - N/A   Overcast
2:10 AM 36.0 °F 27.1 °F 30.9 °F 82% 29.90 in 10.0 mi SSW 13.8 mph - N/A   Overcast
2:21 AM 37.0 °F 29.3 °F 30.9 °F 79% 29.90 in 10.0 mi SSW 11.5 mph - N/A   Overcast
2:52 AM 36.0 °F 29.6 °F 32.0 °F 86% 29.93 in 10.0 mi SSW 8.1 mph - N/A   Partly Cloudy
3:52 AM 35.1 °F 31.0 °F 32.0 °F 89% 29.90 in 9.0 mi SW 4.6 mph - N/A   Clear
4:52 AM 34.0 °F 29.8 °F 30.9 °F 89% 29.90 in 8.0 mi SW 4.6 mph - N/A   Clear
5:52 AM 33.1 °F 26.9 °F 30.9 °F 92% 29.88 in 5.0 mi SSW 6.9 mph - N/A   Clear
6:40 AM 33.1 °F 25.5 °F 30.9 °F 92% 29.82 in 3.0 mi SSW 9.2 mph - N/A   Scattered Clouds
6:49 AM 33.8 °F 27.0 °F 32.0 °F 93% 29.82 in 2.0 mi SSW 8.1 mph - N/A   Mostly Cloudy
6:52 AM 33.1 °F 26.9 °F 32.0 °F 96% 29.87 in 2.0 mi SSW 6.9 mph - N/A   Mostly Cloudy
7:04 AM 33.1 °F 26.1 °F 32.0 °F 96% 29.82 in 1.8 mi SSW 8.1 mph - N/A   Overcast
7:13 AM 33.1 °F 24.9 °F 32.0 °F 96% 29.81 in 1.0 mi SSW 10.4 mph - N/A   Overcast
7:21 AM 33.1 °F 25.5 °F 32.0 °F 96% 29.82 in 0.5 mi SSW 9.2 mph - N/A Fog Fog
7:40 AM 34.0 °F - 32.0 °F 92% 29.84 in 1.2 mi Calm Calm - N/A   Overcast
7:44 AM 34.0 °F - 33.1 °F 96% 29.84 in 2.0 mi Calm Calm - N/A   Overcast
7:52 AM 34.0 °F 28.8 °F 32.0 °F 92% 29.88 in 2.5 mi SSW 5.8 mph - N/A   Overcast
8:10 AM 34.0 °F - 33.1 °F 96% 29.84 in 3.0 mi Calm Calm - N/A   Overcast
8:52 AM 35.1 °F 31.0 °F 32.0 °F 89% 29.88 in 7.0 mi South 4.6 mph - N/A   Scattered Clouds
9:52 AM 37.0 °F 31.6 °F 32.0 °F 82% 29.90 in 10.0 mi South 6.9 mph - N/A   Scattered Clouds
10:52 AM 41.0 °F 38.0 °F 32.0 °F 70% 29.90 in 10.0 mi Variable 4.6 mph - N/A   Clear
11:52 AM 44.1 °F 42.5 °F 30.9 °F 60% 29.89 in 10.0 mi Variable 3.5 mph - N/A   Overcast
12:52 PM 43.0 °F 37.7 °F 30.9 °F 62% 29.91 in 10.0 mi WSW 9.2 mph - 0.00 in   Overcast
1:52 PM 39.0 °F 34.8 °F 34.0 °F 82% 29.91 in 5.0 mi Variable 5.8 mph - 0.03 in Rain Light Rain
2:52 PM 39.0 °F 36.8 °F 35.1 °F 86% 29.91 in 10.0 mi Variable 3.5 mph - 0.02 in Rain Light Rain
3:52 PM 39.0 °F 34.8 °F 35.1 °F 86% 29.94 in 10.0 mi Variable 5.8 mph - 0.00 in   Overcast
4:52 PM 37.9 °F 35.5 °F 33.1 °F 83% 29.96 in 10.0 mi WSW 3.5 mph - N/A   Overcast
5:52 PM 36.0 °F - 32.0 °F 86% 29.96 in 10.0 mi Calm Calm - N/A   Overcast
6:52 PM 37.0 °F - 30.9 °F 79% 30.00 in 10.0 mi Calm Calm - N/A   Overcast
7:40 PM 36.0 °F - 30.0 °F 79% 29.96 in 10.0 mi Calm Calm - N/A   Overcast
7:49 PM 35.6 °F - 30.2 °F 81% 29.97 in 10.0 mi Calm Calm - N/A   Overcast
7:52 PM 35.1 °F - 30.9 °F 85% 30.02 in 10.0 mi Calm Calm - N/A   Overcast
8:52 PM 36.0 °F - 30.0 °F 79% 30.04 in 10.0 mi Calm Calm - N/A   Overcast
9:38 PM 35.1 °F 31.0 °F 30.0 °F 82% 30.00 in 10.0 mi West 4.6 mph - N/A   Partly Cloudy
9:52 PM 35.1 °F - 28.9 °F 78% 30.05 in 10.0 mi Calm Calm - N/A   Partly Cloudy
10:44 PM 32.0 °F - 30.0 °F 92% 30.02 in 5.0 mi Calm Calm - N/A   Mostly Cloudy
10:52 PM 32.0 °F - 30.0 °F 92% 30.07 in 6.0 mi Calm Calm - N/A   Scattered Clouds
11:52 PM 30.9 °F - 28.9 °F 92% 30.08 in 5.0 mi Calm Calm - N/A   Clear